Starlink 33583

operational
NORAD ID: 63503 Int'l Des: 2025-071 Owner: SPXS Country: US Constellation: starlink
LEOCIRCULAR

Starlink 33583について

説明を読み込み中...

リアルタイム位置

3D地球を読み込み中...

次回通過

高度履歴

Altitude vs Time

uPlot chart will show altitude changes over time

軌道要素

1 63503U 25071L 26034.14790639 .00036892 00000-0 12506-2 0 9990
2 63503 53.1593 303.0448 0001538 84.3282 275.7894 15.30224185 47454
Epoch: Feb 3, 2026 • Age: 11 hours

現在のステータス

高度 493.4 km
速度 7.62 km/s
衛星直下点 -50.23°S, 109.36°W
打ち上げ日 Apr 7, 2025
運用期間 0.8 years
タイプ internet

技術仕様

分類 Payload
質量 575.00 kg
乾燥質量 530.00 kg
総質量 575.00 kg
長さ 0.30 m
直径 4.10 m
スパン 29.00 m
形状 Box + pan
製造者 SPXS
バスタイプ Starlink V2MO
フェーズステータス In Orbit
所有者/国 SPXS/US

大規模コンステレーション

Loading constellations...